Date String (YYYY-MM-DD hh:mm:ss) UTC,Instrument flags,absolute air pressure of the measurement (hPa),sample flow rate (lpm),inlet stack bypass flow (lpm),air temperature of the measurement (°C),ambient temperature measured by the external sensor (°C),aerosol sample conditioner tube jacket temperature (°C),OPC LED temperature (°C),internal box temperature (°C),relative humidity of the measurement (%),span deviation,mass concentration of particles derived from Lorenz-Mie calculation of OPC scattering (μg/m³),mass concentration of particles derived from Lorenz-Mie calculation of OPC scattering (μg/m³),mass concentration of particles derived from Lorenz-Mie calculation of OPC scattering (μg/m³)
DateTimeUTC,F1_M11,P_M11,Q1_M11,Q2_M11,T1_M11,T2_M11,T3_M11,T4_M11,T5_M11,U1_M11,ZSPAN_M11,X2_M11,X0_M11,X1_M11
2023-09-23 05:00:00,SystemResetWarning,0827.7,5.00,000.00,028.6,027.4,000.0,036.8,030.3,22.1,0000.0,0006.24,0022.25,0004.80
2023-09-23 05:01:00,SystemResetWarning,0827.7,4.99,000.00,028.6,027.4,000.0,036.8,030.3,23.7,0000.0,0006.26,0023.21,0004.78
2023-09-23 05:02:00,SystemResetWarning,0827.7,5.00,000.00,028.6,027.4,000.0,036.8,030.3,22.6,0000.0,0006.25,0023.44,0004.77
2023-09-23 05:03:00,SystemResetWarning,0827.7,5.01,000.00,028.6,027.4,000.0,036.8,030.3,25.1,0000.0,0006.21,0022.20,0004.76
2023-09-23 05:04:00,SystemResetWarning,0827.7,5.00,000.00,028.6,026.7,000.0,036.8,030.2,26.5,0000.0,0006.15,0020.80,0004.75
2023-09-23 05:05:00,SystemResetWarning,0827.6,5.00,000.00,028.5,024.8,000.0,036.8,029.8,26.2,0000.0,0006.10,0020.57,0004.72
2023-09-23 05:06:00,SystemResetWarning,0827.5,5.02,000.00,028.4,024.2,000.0,036.7,029.7,24.9,0000.0,0006.07,0020.93,0004.70
2023-09-23 05:07:00,SystemResetWarning,0827.5,5.00,000.00,028.3,024.4,000.0,036.7,029.5,25.3,0000.0,0006.04,0019.82,0004.66
2023-09-23 05:08:00,SystemResetWarning,0827.6,5.00,000.00,028.2,024.7,000.0,036.7,029.5,24.5,0000.0,0005.98,0018.41,0004.60
2023-09-23 05:09:00,SystemResetWarning,0827.7,5.00,000.00,028.2,025.1,000.0,036.7,029.6,25.2,0000.0,0005.91,0017.55,0004.55
2023-09-23 05:10:00,SystemResetWarning,0827.7,5.00,000.00,028.2,025.4,000.0,036.7,029.6,25.8,0000.0,0005.86,0017.46,0004.50
2023-09-23 05:11:00,SystemResetWarning,0827.7,5.00,000.00,028.2,025.8,000.0,036.6,029.7,26.1,0000.0,0005.76,0017.02,0004.46
2023-09-23 05:12:00,SystemResetWarning,0827.6,5.00,000.00,028.2,026.0,000.0,036.6,029.7,26.3,0000.0,0005.65,0016.98,0004.41
2023-09-23 05:13:00,SystemResetWarning,0827.6,5.00,000.00,028.2,026.2,000.0,036.6,029.7,25.4,0000.0,0005.58,0015.79,0004.34
2023-09-23 05:14:00,SystemResetWarning,0827.7,5.00,000.00,028.2,026.4,000.0,036.6,029.8,26.0,0000.0,0005.43,0015.57,0004.26
2023-09-23 05:15:00,SystemResetWarning,0827.7,5.00,000.00,028.2,026.5,000.0,036.6,029.8,26.4,0000.0,0005.33,0015.61,0004.18
2023-09-23 05:16:00,SystemResetWarning,0827.7,5.00,000.00,028.2,026.7,000.0,036.6,029.9,27.6,0000.0,0005.23,0016.11,0004.11
2023-09-23 05:17:00,SystemResetWarning,0827.6,4.99,000.00,028.2,026.8,000.0,036.6,029.9,28.3,0000.0,0005.18,0015.40,0004.05
2023-09-23 05:18:00,SystemResetWarning,0827.7,4.99,000.00,028.2,026.9,000.0,036.6,029.9,28.7,0000.0,0005.14,0015.39,0004.03
2023-09-23 05:19:00,SystemResetWarning,0827.7,5.01,000.00,028.3,026.9,000.0,036.6,030.0,28.8,0000.0,0005.13,0014.44,0004.02
2023-09-23 05:20:00,SystemResetWarning,0827.7,5.01,000.00,028.3,027.0,000.0,036.6,030.0,28.2,0000.0,0005.14,0014.30,0004.01
2023-09-23 05:21:00,SystemResetWarning,0827.8,4.99,000.00,028.3,027.0,000.0,036.6,030.0,27.4,0000.0,0005.20,0014.24,0004.03
2023-09-23 05:22:00,SystemResetWarning,0827.7,4.99,000.00,028.3,027.0,000.0,036.6,030.0,27.4,0000.0,0005.18,0014.71,0004.03
2023-09-23 05:23:00,SystemResetWarning,0827.7,5.00,000.00,028.3,027.1,000.0,036.6,030.0,27.6,0000.0,0005.18,0014.14,0004.02
2023-09-23 05:24:00,SystemResetWarning,0827.7,5.00,000.00,028.4,027.1,000.0,036.6,030.0,28.0,0000.0,0005.18,0014.67,0004.03
2023-09-23 05:25:00,SystemResetWarning,0827.7,5.01,000.00,028.4,027.1,000.0,036.7,030.1,28.0,0000.0,0005.24,0015.22,0004.07
2023-09-23 05:26:00,SystemResetWarning,0827.8,5.00,000.00,028.4,027.1,000.0,036.7,030.1,27.9,0000.0,0005.27,0014.95,0004.08
2023-09-23 05:27:00,SystemResetWarning,0827.7,4.99,000.00,028.4,027.1,000.0,036.7,030.1,27.6,0000.0,0005.28,0014.59,0004.07
2023-09-23 05:28:00,SystemResetWarning,0827.7,5.00,000.00,028.4,027.2,000.0,036.7,030.1,27.7,0000.0,0005.23,0014.94,0004.06
2023-09-23 05:29:00,SystemResetWarning,0827.7,5.01,000.00,028.5,027.2,000.0,036.7,030.2,27.9,0000.0,0005.17,0014.66,0004.02
2023-09-23 05:30:00,SystemResetWarning,0827.7,5.00,000.00,028.5,027.2,000.0,036.7,030.2,28.2,0000.0,0005.09,0015.03,0003.99
2023-09-23 05:31:00,SystemResetWarning,0827.7,4.99,000.00,028.5,027.3,000.0,036.7,030.2,28.8,0000.0,0005.05,0015.17,0003.96
2023-09-23 05:32:00,SystemResetWarning,0827.7,4.99,000.00,028.5,027.3,000.0,036.8,030.2,29.1,0000.0,0004.98,0014.85,0003.94
2023-09-23 05:33:00,SystemResetWarning,0827.7,4.99,000.00,028.5,027.3,000.0,036.8,030.2,28.8,0000.0,0005.00,0014.58,0003.95
2023-09-23 05:34:00,SystemResetWarning,0827.7,5.01,000.00,028.6,027.3,000.0,036.8,030.2,28.3,0000.0,0005.11,0015.93,0003.98
2023-09-23 05:35:00,SystemResetWarning,0827.7,5.01,000.00,028.6,027.3,000.0,036.8,030.2,28.0,0000.0,0005.19,0015.85,0004.01
2023-09-23 05:36:00,SystemResetWarning,0827.7,5.01,000.00,028.6,027.4,000.0,036.8,030.3,28.9,0000.0,0005.20,0015.16,0004.02
2023-09-23 05:37:00,SystemResetWarning,0827.7,5.00,000.00,028.6,027.4,000.0,036.9,030.3,29.0,0000.0,0005.27,0014.75,0004.06
2023-09-23 05:38:00,SystemResetWarning,0827.7,4.98,000.00,028.6,027.4,000.0,036.9,030.3,28.6,0000.0,0005.31,0015.11,0004.10
2023-09-23 05:39:00,SystemResetWarning,0827.7,5.01,000.00,028.7,027.4,000.0,036.9,030.4,27.6,0000.0,0005.40,0015.89,0004.18
2023-09-23 05:40:00,SystemResetWarning,0827.7,5.01,000.00,028.7,027.5,000.0,036.9,030.4,27.1,0000.0,0005.54,0016.66,0004.25
2023-09-23 05:41:00,SystemResetWarning,0827.7,5.00,000.00,028.7,027.5,000.0,036.9,030.4,26.9,0000.0,0005.64,0017.19,0004.30
2023-09-23 05:42:00,SystemResetWarning,0827.7,4.99,000.00,028.7,027.5,000.0,036.9,030.4,26.8,0000.0,0005.70,0017.65,0004.37
2023-09-23 05:43:00,SystemResetWarning,0827.7,5.00,000.00,028.7,027.5,000.0,037.0,030.4,27.0,0000.0,0005.76,0017.75,0004.40
2023-09-23 05:44:00,SystemResetWarning,0827.8,5.01,000.00,028.8,027.5,000.0,037.0,030.4,27.4,0000.0,0005.85,0018.14,0004.42
2023-09-23 05:45:00,SystemResetWarning,0827.7,5.01,000.00,028.8,027.4,000.0,037.0,030.4,27.7,0000.0,0005.79,0017.46,0004.43
2023-09-23 05:46:00,SystemResetWarning,0827.7,4.98,000.00,028.7,025.9,000.0,036.9,030.1,28.0,0000.0,0005.82,0018.62,0004.44
2023-09-23 05:47:00,SystemResetWarning,0827.7,5.02,000.00,028.6,024.3,000.0,036.9,029.9,28.5,0000.0,0005.85,0018.26,0004.46
2023-09-23 05:48:00,SystemResetWarning,0827.7,5.01,000.00,028.5,024.1,000.0,036.8,029.7,29.1,0000.0,0005.80,0017.84,0004.47
2023-09-23 05:49:00,SystemResetWarning,0827.7,5.00,000.00,028.3,024.4,000.0,036.8,029.5,29.6,0000.0,0005.81,0017.57,0004.48
2023-09-23 05:50:00,SystemResetWarning,0827.7,5.00,000.00,028.3,024.8,000.0,036.8,029.6,30.0,0000.0,0005.85,0016.98,0004.49
2023-09-23 05:51:00,SystemResetWarning,0827.7,4.99,000.00,028.2,025.1,000.0,036.8,029.6,30.6,0000.0,0005.89,0016.05,0004.50
2023-09-23 05:52:00,SystemResetWarning,0827.7,5.00,000.00,028.2,025.5,000.0,036.8,029.6,30.7,0000.0,0005.93,0015.91,0004.53
2023-09-23 05:53:00,SystemResetWarning,0827.7,5.00,000.00,028.2,025.8,000.0,036.7,029.7,30.6,0000.0,0005.97,0015.97,0004.56
2023-09-23 05:54:00,SystemResetWarning,0827.7,5.01,000.00,028.2,026.0,000.0,036.7,029.7,30.7,0000.0,0006.08,0016.65,0004.59
2023-09-23 05:55:00,SystemResetWarning,0827.7,4.99,000.00,028.2,026.3,000.0,036.7,029.8,30.9,0000.0,0006.11,0016.70,0004.63
2023-09-23 05:56:00,SystemResetWarning,0827.7,4.99,000.00,028.2,026.4,000.0,036.7,029.8,31.0,0000.0,0006.19,0016.52,0004.66
2023-09-23 05:57:00,SystemResetWarning,0827.7,5.01,000.00,028.2,026.6,000.0,036.7,029.9,31.1,0000.0,0006.23,0015.84,0004.68
2023-09-23 05:58:00,SystemResetWarning,0827.7,5.01,000.00,028.3,026.7,000.0,036.7,029.9,31.2,0000.0,0006.21,0016.38,0004.70
2023-09-23 05:59:00,SystemResetWarning,0827.8,4.99,000.00,028.3,026.8,000.0,036.7,029.9,31.1,0000.0,0006.18,0016.74,0004.70
